Hattiesburg, MS

1:26 AM CST on January 21, 2017 (GMT -0600)
Hattiesburg

Weather History for KHBG - December, 2013

Change the Weather History Date:

Saturday, December 28, 2013

  Actual Average Record
Temperature  
Mean Temperature 46 °F 49 °F  
Max Temperature 48 °F 60 °F 82 °F (1987)
Min Temperature 44 °F 38 °F 19 °F (2010)
Degree Days  
Heating Degree Days 19 16  
Month to date heating degree days 401 409  
Since 1 July heating degree days 768 737  
Cooling Degree Days 0 0  
Month to date cooling degree days 34 12  
Year to date cooling degree days 2442 2402  
Moisture  
Dew Point 43 °F    
Average Humidity 72    
Maximum Humidity 93    
Minimum Humidity 50    
Precipitation  
Precipitation 1.42 in 0.14 in 4.48 in (1983)
Month to date precipitation 3.83 4.50  
Year to date precipitation 65.91 58.76  
Sea Level Pressure  
Sea Level Pressure 30.14 in    
Wind  
Wind Speed 4 mph (North)    
Max Wind Speed 9 mph    
Max Gust Speed 12 mph    
Visibility 5 miles    
Events Rain    
T = Trace of Precipitation, MM = Missing Value Source: NWS Daily Summary

Daily Weather History Graph

Daily Weather History Graph

Search for Another Location

Airport or City:

Trip Planner

Search our weather history database for the weather conditions in past years. The results will help you decide how hot, cold, wet, or windy it might be!

Date:

Astronomy

Dec. 28, 2013 Rise Set
Actual Time 6:54 AM CST 5:02 PM CST
Civil Twilight 6:28 AM CST 5:29 PM CST
Nautical Twilight 5:57 AM CST 5:59 PM CST
Astronomical Twilight 5:28 AM CST 6:29 PM CST
Moon 2:40 AM CST (12/28) 1:46 PM CST (12/28)
Length of Visible Light 11h 01m
Length of Day
10h 08m
Waning Crescent, 19% of the Moon is Illuminated
Dec 28
Waning Crescent
Jan 1
New
Jan 7
First Quarter
Jan 15
Full
Jan 23
Last Quarter

Hourly Weather History & Observations

Time (CST) Temp. Windchill Dew Point Humidity Pressure Visibility Wind Dir Wind Speed Gust Speed Precip Events Conditions
12:53 AM 46.9 °F - 32.0 °F 56% 30.30 in 10.0 mi NNE 4.6 mph - 0.00 in Rain Light Rain
1:53 AM 48.0 °F - 32.0 °F 54% 30.30 in 10.0 mi Calm Calm - 0.00 in Rain Light Rain
2:53 AM 46.9 °F - 36.0 °F 66% 30.26 in 10.0 mi North 4.6 mph - 0.00 in Rain Light Rain
3:53 AM 46.0 °F - 37.0 °F 71% 30.24 in 10.0 mi Calm Calm - 0.01 in Rain Light Rain
4:53 AM 46.0 °F 44.8 °F 39.9 °F 79% 30.27 in 10.0 mi Variable 3.5 mph - 0.01 in Rain Light Rain
5:53 AM 44.1 °F 40.8 °F 39.9 °F 85% 30.22 in 9.0 mi NE 5.8 mph - 0.06 in Rain Light Rain
6:51 AM 44.6 °F - 41.0 °F 87% 30.23 in 7.0 mi Calm Calm - 0.08 in Rain Rain
6:53 AM 44.1 °F - 41.0 °F 89% 30.23 in 7.0 mi Calm Calm - 0.09 in Rain Rain
7:18 AM 44.1 °F 42.5 °F 42.1 °F 93% 30.23 in 4.0 mi North 3.5 mph - 0.05 in Rain Rain
7:53 AM 44.1 °F 41.5 °F 42.1 °F 93% 30.23 in 3.0 mi NNE 4.6 mph - 0.13 in Rain Rain
7:56 AM 44.1 °F 41.5 °F 42.1 °F 93% 30.23 in 3.0 mi North 4.6 mph - 0.01 in Rain Rain
8:04 AM 44.1 °F 41.5 °F 42.1 °F 93% 30.23 in 3.0 mi NNW 4.6 mph - 0.04 in Rain Heavy Rain
8:11 AM 44.1 °F 40.8 °F 42.1 °F 93% 30.23 in 3.0 mi North 5.8 mph - 0.05 in Rain Rain
8:41 AM 44.1 °F 40.8 °F 42.1 °F 93% 30.25 in 2.5 mi WNW 5.8 mph - 0.12 in Rain Rain
8:53 AM 45.0 °F 42.6 °F 43.0 °F 93% 30.24 in 2.0 mi North 4.6 mph - 0.18 in Rain Heavy Rain
8:57 AM 45.0 °F 42.6 °F 43.0 °F 93% 30.24 in 2.0 mi North 4.6 mph - 0.01 in Rain Heavy Rain
9:26 AM 45.0 °F 41.2 °F 43.0 °F 93% 30.22 in 3.0 mi North 6.9 mph - 0.10 in Rain Rain
9:36 AM 45.0 °F 42.6 °F 43.0 °F 93% 30.23 in 2.5 mi NNW 4.6 mph - 0.13 in Rain Heavy Rain
9:42 AM 45.0 °F - 43.0 °F 93% 30.25 in 3.0 mi Calm Calm - 0.14 in Rain Rain
9:49 AM 44.6 °F 42.2 °F 42.8 °F 93% 30.25 in 1.8 mi WNW 4.6 mph - 0.18 in Rain Heavy Rain
9:53 AM 45.0 °F 41.2 °F 43.0 °F 93% 30.24 in 1.5 mi NNW 6.9 mph - 0.20 in Rain Heavy Rain
10:01 AM 45.0 °F 41.2 °F 43.0 °F 93% 30.22 in 2.0 mi North 6.9 mph - 0.04 in Rain Heavy Rain
10:53 AM 46.0 °F 44.8 °F 44.1 °F 93% 30.20 in 2.5 mi NW 3.5 mph - 0.21 in Rain Heavy Rain
11:29 AM 46.0 °F - 45.0 °F 96% 30.19 in 4.0 mi Calm Calm - 0.07 in Rain Light Rain
11:42 AM 46.9 °F - 44.1 °F 90% 30.14 in 2.0 mi NNE 6.9 mph - 0.13 in Rain Heavy Rain
11:53 AM 46.9 °F - 45.0 °F 93% 30.14 in 2.5 mi NNE 5.8 mph - 0.17 in Rain Rain
12:02 PM 46.9 °F - 45.0 °F 93% 30.12 in 4.0 mi NNE 6.9 mph - 0.02 in Rain Rain
12:29 PM 46.9 °F - 45.0 °F 93% 30.11 in 2.5 mi NW 4.6 mph - 0.06 in Rain Heavy Rain
12:40 PM 46.9 °F - 45.0 °F 93% 30.10 in 3.0 mi NNE 4.6 mph - 0.09 in Rain Rain
12:53 PM 46.9 °F - 45.0 °F 93% 30.09 in 1.8 mi NNE 5.8 mph - 0.16 in Rain Heavy Rain
1:05 PM 46.9 °F - 46.0 °F 97% 30.08 in 3.0 mi NE 4.6 mph - 0.04 in Rain Rain
1:51 PM 48.2 °F - 46.4 °F 93% 30.05 in 2.0 mi NE 5.8 mph - 0.12 in Rain Rain
1:53 PM 48.0 °F - 46.0 °F 93% 30.05 in 2.0 mi NNE 5.8 mph - 0.12 in Rain Heavy Rain
2:10 PM 48.0 °F - 46.0 °F 93% 30.04 in 3.0 mi NE 5.8 mph - 0.03 in Rain Rain
2:38 PM 48.0 °F - 46.0 °F 93% 30.03 in 2.5 mi ENE 5.8 mph - 0.06 in Rain Rain
2:48 PM 48.2 °F - 46.4 °F 93% 30.02 in 5.0 mi ENE 6.9 mph - 0.07 in Rain Light Rain
2:53 PM 48.0 °F - 46.0 °F 93% 30.02 in 7.0 mi ENE 6.9 mph - 0.07 in Rain Light Rain
3:53 PM 48.0 °F - 45.0 °F 89% 30.02 in 9.0 mi North 5.8 mph - 0.01 in Rain Light Rain
4:53 PM 48.0 °F - 46.0 °F 93% 30.02 in 4.0 mi Calm Calm - 0.03 in Rain Light Rain
5:53 PM 46.9 °F - 45.0 °F 93% 29.96 in 10.0 mi NE 8.1 mph - 0.02 in Rain Light Rain
6:53 PM 46.9 °F - 45.0 °F 93% 30.04 in 10.0 mi WNW 5.8 mph - 0.00 in   Overcast
7:53 PM 48.0 °F - 45.0 °F 89% 30.01 in 10.0 mi North 3.5 mph - 0.00 in   Overcast
8:45 PM 46.9 °F - 45.0 °F 93% 29.99 in 10.0 mi NW 4.6 mph - 0.01 in Rain Light Rain
8:53 PM 46.9 °F - 45.0 °F 93% 30.00 in 10.0 mi NNW 3.5 mph - 0.01 in   Mostly Cloudy
9:53 PM 46.9 °F - 45.0 °F 93% 30.02 in 10.0 mi NW 4.6 mph - 0.00 in Rain Light Rain
10:53 PM 46.9 °F - 45.0 °F 93% 29.99 in 8.0 mi Calm Calm - 0.01 in Rain Light Rain
11:53 PM 46.9 °F - 45.0 °F 93% 30.00 in 9.0 mi West 3.5 mph - 0.01 in   Overcast